YAOGAN 29               
1 41038U 15069A   19259.82538963  .00000000  00000-0  69048-5 0  9999
2 41038  97.9836 243.6917 0002274  70.1225 290.0227 14.80417551205649
CZ-4C R/B               
1 41039U 15069B   19259.63283106  .00000095  00000-0  10432-4 0  9991
2 41039  97.8087 282.4252 0094883  11.9063 348.4375 15.06471412209157
CZ-4C DEB               
1 42670U 15069C   19259.31700977 -.00000035  00000-0  24451-5 0  9990
2 42670  97.8088 282.2098 0094830  12.6479 347.7095 15.06588898160038
CZ-4C DEB               
1 42671U 15069D   19259.77679534  .00000196  00000-0  48681-4 0  9992
2 42671  97.9678 187.3993 0160145 222.5417 136.3283 14.54869700196341
CZ-4C DEB               
1 42672U 15069E   19259.05702812  .00000251  00000-0  55230-4 0  9990
2 42672  98.0538 205.6844 0159509 216.4531 142.5725 14.58546306196741
YAOGAN 29 DEB           
1 42673U 15069F   19259.78193161  .00000036  00000-0  10638-4 0  9996
2 42673  97.9677 252.2581 0004353 147.1250 213.0235 14.84957361205617